DW7126 Lourinha PT current weather conditions

sailwx.info

Wind from 247 at 11 knots gusting 16

Air temperature 20.6° C
Dewpoint 16.8° C

Last reported at 2015-Jul-03 17:00 UTC.
Time now 2015-Jul-04 10:12 UTC

Location: N 39°14' W 009°18'.
View on Google Maps.

See reports from other nearby stations

  
Tides and Currents Weather Stations Pressure Air Temp Water Temp Dewpoint Dewpoint Depression Visibility Wind Speed Wind Dir Waves Ship Positions
date/time (UTC)wind fromknots sea level pressurealtimeterstation pressurevisibilityair tempwater tempwave heightnotes
2015-Jul-03 17:00 247 11 gusting 16 20.6
2015-Jul-03 16:55 248 12 gusting 15 20.6
2015-Jul-03 16:50 255 10 gusting 19 20.6
2015-Jul-03 16:45 264 10 gusting 19 20.6
2015-Jul-03 16:40 244 12 gusting 16 21.1
2015-Jul-03 16:35 236 11 gusting 16 20.6
2015-Jul-03 16:30 263 10 gusting 16 20.6
2015-Jul-03 16:25 263 13 gusting 16 20.6
2015-Jul-03 16:20 267 10 gusting 14 21.7
2015-Jul-03 16:15 249 9 gusting 15 21.1
2015-Jul-03 16:10 250 9 gusting 17 20.6
2015-Jul-03 16:05 233 13 gusting 17 20.6
2015-Jul-03 16:00 240 13 gusting 17 20.6
2015-Jul-03 15:55 254 12 gusting 17 20.0
2015-Jul-03 15:50 249 13 gusting 17 20.6
2015-Jul-03 15:45 250 12 gusting 17 20.6
2015-Jul-03 15:40 250 11 gusting 18 20.6
2015-Jul-03 15:35 360 13 gusting 18 20.0
2015-Jul-03 15:30 267 12 gusting 17 20.6
2015-Jul-03 15:25 259 12 gusting 17 20.6
2015-Jul-03 15:20 360 12 gusting 18 20.6
2015-Jul-03 15:15 261 13 gusting 18 20.6
2015-Jul-03 15:10 257 13 gusting 17 21.1
2015-Jul-03 15:05 257 11 gusting 16 21.1
2015-Jul-03 15:00 276 9 gusting 15 21.1
2015-Jul-03 14:55 262 10 gusting 15 20.6
2015-Jul-03 14:50 259 9 gusting 16 20.6
2015-Jul-03 14:45 286 11 gusting 16 20.6
2015-Jul-03 14:40 251 10 gusting 14 21.7
2015-Jul-03 14:35 259 9 gusting 14 21.1
2015-Jul-03 14:30 279 9 gusting 14 20.6
2015-Jul-03 14:25 270 10 gusting 15 20.6
2015-Jul-03 14:20 257 10 gusting 17 20.6
2015-Jul-03 14:15 265 13 gusting 17 20.6
2015-Jul-03 14:10 250 12 gusting 16 21.7
2015-Jul-03 14:05 232 13 gusting 16 21.7
2015-Jul-03 14:00 250 12 gusting 15 20.6
2015-Jul-03 13:55 261 11 gusting 15 21.7
2015-Jul-03 13:50 271 10 gusting 14 21.1
2015-Jul-03 13:45 252 11 gusting 14 21.7
2015-Jul-03 13:40 360 10 gusting 13 22.2
2015-Jul-03 13:35 251 7 gusting 10 23.3
2015-Jul-03 13:30 259 6 gusting 9 22.2
2015-Jul-03 13:25 279 7 gusting 10 22.2
2015-Jul-03 13:20 248 6 gusting 10 21.7
2015-Jul-03 13:15 360 6 gusting 12 22.2
2015-Jul-03 13:10 246 7 gusting 12 22.2
2015-Jul-03 13:05 252 7 gusting 10 22.8
2015-Jul-03 13:00 274 6 gusting 10 22.8
2015-Jul-03 12:55 360 6 gusting 10 22.8
2015-Jul-03 12:50 255 6 gusting 10 22.2
2015-Jul-03 12:45 248 4 gusting 10 22.2
2015-Jul-03 12:40 262 7 gusting 10 21.7
2015-Jul-03 12:35 234 5 gusting 9 21.7
2015-Jul-03 12:30 242 3 gusting 9 21.7
2015-Jul-03 12:25 259 5 gusting 9 22.2
2015-Jul-03 12:20 293 4 gusting 9 22.2
2015-Jul-03 12:15 294 5 gusting 10 21.7
2015-Jul-03 12:10 265 7 gusting 10 20.6
2015-Jul-03 12:05 230 6 gusting 10 20.6
2015-Jul-03 12:00 259 7 gusting 11 21.7
2015-Jul-03 11:55 360 7 gusting 11 21.1
2015-Jul-03 11:50 254 6 gusting 9 21.1
2015-Jul-03 11:45 264 6 gusting 11 21.1
2015-Jul-03 11:40 246 6 gusting 11 20.6
2015-Jul-03 11:35 253 6 gusting 12 20.6
2015-Jul-03 11:30 248 8 gusting 13 21.1
2015-Jul-03 11:25 259 7 gusting 13 20.6
2015-Jul-03 11:20 360 6 gusting 11 21.1
2015-Jul-03 11:15 257 6 gusting 11 21.1
2015-Jul-03 11:10 259 7 gusting 10 20.6
2015-Jul-03 11:05 360 5 gusting 11 20.6
2015-Jul-03 11:00 253 8 gusting 11 20.6
2015-Jul-03 10:55 252 6 gusting 10 20.0
2015-Jul-03 10:50 243 6 gusting 11 20.6
2015-Jul-03 10:45 265 7 gusting 11 21.1
2015-Jul-03 10:40 253 6 gusting 11 20.6
2015-Jul-03 10:35 360 5 gusting 9 21.7
2015-Jul-03 10:30 360 6 gusting 9 21.1
2015-Jul-03 10:25 294 6 gusting 9 21.1
2015-Jul-03 10:20 296 2 gusting 8 21.1
2015-Jul-03 10:15 284 4 gusting 8 20.6
2015-Jul-03 10:10 270 5 gusting 8 21.1
2015-Jul-03 10:05 281 5 gusting 8 21.1
2015-Jul-03 10:00 297 2 gusting 6 20.0
2015-Jul-03 09:55 242 4 gusting 6 20.6
2015-Jul-03 09:50 285 3 gusting 7 20.0
2015-Jul-03 09:45 276 3 gusting 7 20.0
2015-Jul-03 09:40 269 3 gusting 6 20.0
2015-Jul-03 09:35 296 2 gusting 6 20.0
2015-Jul-03 09:30 278 4 gusting 6 19.4
2015-Jul-03 09:25 279 4 gusting 7 20.0
2015-Jul-03 09:20 323 2 gusting 7 20.0
2015-Jul-03 09:15 288 3 gusting 6 19.4
2015-Jul-03 09:10 269 1 gusting 5 19.4
2015-Jul-03 09:05 335 1 gusting 4 19.4
2015-Jul-03 09:00 327 1 gusting 4 19.4
2015-Jul-03 08:55 283 19.4
2015-Jul-03 08:50 288 2 gusting 5 18.9
2015-Jul-03 08:45 317 0 gusting 6 18.9
2015-Jul-03 08:40 306 3 gusting 6 18.9
2015-Jul-03 08:35 301 1 gusting 4 18.9
2015-Jul-03 08:30 342 18.9
2015-Jul-03 08:25 344 2 gusting 4 18.3
2015-Jul-03 08:20 317 2 gusting 4 18.3
2015-Jul-03 08:15 015 18.3
2015-Jul-03 08:10 016 0 gusting 3 17.8
2015-Jul-03 08:05 016 1 gusting 3 17.8
2015-Jul-03 08:00 021 17.2
2015-Jul-03 07:55 024 17.2
2015-Jul-03 07:50 024 16.7
2015-Jul-03 07:45 024 16.7
2015-Jul-03 07:40 024 16.1
2015-Jul-03 07:35 024 16.1
2015-Jul-03 07:30 024 15.6
2015-Jul-03 07:25 024 15.0
2015-Jul-03 07:20 024 15.0
2015-Jul-03 07:15 024 14.4
2015-Jul-03 07:10 025 14.4
2015-Jul-03 07:05 025 15.0
2015-Jul-03 07:00 026 15.0
2015-Jul-03 06:55 026 14.4
2015-Jul-03 06:50 026 13.9
2015-Jul-03 06:45 026 13.3
2015-Jul-03 06:40 026 12.8
2015-Jul-03 06:35 026 12.8
2015-Jul-03 06:30 026 12.2
2015-Jul-03 06:25 026 12.2
2015-Jul-03 06:20 026 12.2
2015-Jul-03 06:15 026 12.2
2015-Jul-03 06:10 026 12.8
2015-Jul-03 06:05 026 11.7
2015-Jul-03 06:00 026 11.7
2015-Jul-03 05:55 026 12.2
2015-Jul-03 05:50 026 12.2
2015-Jul-03 05:45 026 12.2
2015-Jul-03 05:40 028 12.2
2015-Jul-03 05:35 022 12.2
2015-Jul-03 05:30 022 12.2
2015-Jul-03 05:25 022 12.2
2015-Jul-03 05:20 022 12.2
2015-Jul-03 05:15 022 11.7
2015-Jul-03 05:10 022 12.2
2015-Jul-03 05:05 022 12.2
2015-Jul-03 05:00 022 12.2
2015-Jul-03 04:55 022 12.2
2015-Jul-03 04:50 022 12.2
2015-Jul-03 04:45 022 12.2
2015-Jul-03 04:40 022 12.2
2015-Jul-03 04:35 022 12.2
2015-Jul-03 04:30 022 12.8
2015-Jul-03 04:25 022 12.8
2015-Jul-03 04:20 022 12.8
2015-Jul-03 04:15 022 12.8
2015-Jul-03 04:10 022 12.8
2015-Jul-03 04:05 022 12.8
2015-Jul-03 04:00 022 12.8
2015-Jul-03 03:55 022 12.8
2015-Jul-03 03:50 022 12.8
2015-Jul-03 03:45 022 12.8
2015-Jul-03 03:40 022 12.8
2015-Jul-03 03:35 022 12.8
2015-Jul-03 03:30 022 12.8
2015-Jul-03 03:25 022 12.8
2015-Jul-03 03:20 022 13.3
2015-Jul-03 03:15 022 13.3
2015-Jul-03 03:10 022 13.3
2015-Jul-03 03:05 022 13.9
2015-Jul-03 03:00 022 13.9
2015-Jul-03 02:55 022 13.9
2015-Jul-03 02:50 022 13.9
2015-Jul-03 02:45 022 14.4
2015-Jul-03 02:40 022 14.4
2015-Jul-03 02:35 022 14.4
2015-Jul-03 02:30 022 15.0
2015-Jul-03 02:25 022 15.0
2015-Jul-03 02:20 022 15.0
2015-Jul-03 02:15 022 14.4
2015-Jul-03 02:10 022 14.4
2015-Jul-03 02:05 022 14.4
2015-Jul-03 02:00 022 14.4
2015-Jul-03 01:55 022 14.4
2015-Jul-03 01:50 022 14.4
2015-Jul-03 01:45 022 15.6
2015-Jul-03 01:40 022 15.6
2015-Jul-03 01:35 022 15.6
2015-Jul-03 01:30 022 15.6
2015-Jul-03 01:25 022 15.0
2015-Jul-03 01:20 022 15.0
2015-Jul-03 01:15 022 15.0
2015-Jul-03 01:10 022 15.6
2015-Jul-03 01:05 022 15.0
2015-Jul-03 01:00 022 15.0
2015-Jul-03 00:55 022 15.0
2015-Jul-03 00:50 022 15.0
2015-Jul-03 00:45 022 15.0
2015-Jul-03 00:40 022 15.0
2015-Jul-03 00:35 022 15.0
2015-Jul-03 00:30 022 15.6
2015-Jul-03 00:25 022 16.1
2015-Jul-03 00:20 022 16.1
2015-Jul-03 00:15 022 16.1
2015-Jul-03 00:10 022 16.1
2015-Jul-03 00:05 022 15.6
2015-Jul-03 00:00 022 15.6
2015-Jul-02 23:55 022 15.6
2015-Jul-02 23:50 022 15.6
2015-Jul-02 23:45 022 15.6
2015-Jul-02 23:40 022 15.6
2015-Jul-02 23:35 022 15.6
2015-Jul-02 23:30 022 16.1
2015-Jul-02 23:25 022 16.1
2015-Jul-02 23:20 022 15.6
2015-Jul-02 23:15 022 15.6
2015-Jul-02 23:10 022 15.6
2015-Jul-02 23:05 022 15.6
2015-Jul-02 23:00 022 15.6
2015-Jul-02 22:55 022 16.1
2015-Jul-02 22:50 022 16.1
2015-Jul-02 22:45 022 16.1
2015-Jul-02 22:40 022 16.1
2015-Jul-02 22:35 022 16.1
2015-Jul-02 22:30 022 16.7
2015-Jul-02 22:25 022 16.7
2015-Jul-02 22:20 022 16.7
2015-Jul-02 22:15 022 16.7
2015-Jul-02 22:10 022 17.2
2015-Jul-02 22:05 022 0 gusting 2 17.2
2015-Jul-02 22:00 022 0 gusting 2 17.2
2015-Jul-02 21:55 022 0 gusting 2 17.2
2015-Jul-02 21:50 024 17.2
2015-Jul-02 21:45 023 17.2
2015-Jul-02 21:40 023 17.2
2015-Jul-02 21:35 024 17.2
2015-Jul-02 21:30 024 17.8
2015-Jul-02 21:25 023 1 gusting 5 17.8
2015-Jul-02 21:20 011 3 gusting 6 17.8
2015-Jul-02 21:15 021 1 gusting 3 17.8
2015-Jul-02 21:10 024 1 gusting 4 17.8
2015-Jul-02 21:05 014 0 gusting 5 17.8
2015-Jul-02 21:00 015 1 gusting 5 17.8
2015-Jul-02 20:55 019 1 gusting 3 17.8
2015-Jul-02 20:50 018 1 gusting 3 17.8
2015-Jul-02 20:45 018 1 gusting 3 18.3
2015-Jul-02 20:40 018 1 gusting 3 18.3
2015-Jul-02 20:35 019 1 gusting 6 18.3
2015-Jul-02 20:30 017 2 gusting 7 18.3
2015-Jul-02 20:25 019 5 gusting 7 18.3
2015-Jul-02 20:20 019 2 gusting 10 18.9
2015-Jul-02 20:15 360 5 gusting 10 18.9
2015-Jul-02 20:10 019 6 gusting 10 18.9
2015-Jul-02 20:05 015 6 gusting 10 18.9
2015-Jul-02 20:00 023 7 gusting 10 18.9
2015-Jul-02 19:55 011 4 gusting 9 19.4
2015-Jul-02 19:50 024 5 gusting 9 19.4
2015-Jul-02 19:45 360 6 gusting 8 19.4
2015-Jul-02 19:40 005 5 gusting 8 20.0
2015-Jul-02 19:35 005 4 gusting 9 20.0
2015-Jul-02 19:30 027 5 gusting 10 20.0
2015-Jul-02 19:25 360 5 gusting 10 20.0
2015-Jul-02 19:20 005 6 gusting 9 20.6
2015-Jul-02 19:15 010 4 gusting 11 20.6
2015-Jul-02 19:10 360 4 gusting 11 20.6
2015-Jul-02 19:05 022 6 gusting 11 20.6
2015-Jul-02 19:00 360 7 gusting 11 21.1
2015-Jul-02 18:55 015 5 gusting 10 21.1
2015-Jul-02 18:50 005 4 gusting 12 21.1
2015-Jul-02 18:45 360 7 gusting 12 21.1
2015-Jul-02 18:40 360 6 gusting 13 21.1
2015-Jul-02 18:35 028 8 gusting 13 21.1
2015-Jul-02 18:30 028 4 gusting 10 21.1
2015-Jul-02 18:25 346 6 gusting 11 20.6
2015-Jul-02 18:20 304 7 gusting 11 21.1
2015-Jul-02 18:15 327 6 gusting 12 21.1
2015-Jul-02 18:10 315 6 gusting 12 21.1
2015-Jul-02 18:05 316 8 gusting 12 21.1
2015-Jul-02 18:00 311 8 gusting 12 21.1
2015-Jul-02 17:55 321 8 gusting 13 21.1
2015-Jul-02 17:50 360 7 gusting 13 21.1
2015-Jul-02 17:45 345 7 gusting 13 21.1
2015-Jul-02 17:40 328 9 gusting 13 21.1
2015-Jul-02 17:35 317 6 gusting 15 21.1
2015-Jul-02 17:30 313 9 gusting 13 21.1
2015-Jul-02 17:25 341 7 gusting 12 21.1
2015-Jul-02 17:20 321 8 gusting 13 21.1
2015-Jul-02 17:15 323 9 gusting 13 21.7
2015-Jul-02 17:10 331 8 gusting 13 21.1
2015-Jul-02 17:05 312 7 gusting 13 21.1
2015-Jul-02 17:00 296 8 gusting 13 21.1
2015-Jul-02 16:55 313 7 gusting 13 22.2
2015-Jul-02 16:50 309 8 gusting 13 21.7
2015-Jul-02 16:45 333 9 gusting 13 21.1
2015-Jul-02 16:40 315 9 gusting 13 21.1
2015-Jul-02 16:35 313 8 gusting 14 21.1
2015-Jul-02 16:30 318 8 gusting 14 21.1
2015-Jul-02 16:25 311 6 gusting 13 21.7
2015-Jul-02 16:20 346 6 gusting 13 21.7
2015-Jul-02 16:15 340 6 gusting 13 22.2
2015-Jul-02 16:10 331 6 gusting 13 22.2
2015-Jul-02 16:05 320 10 gusting 13 21.1
2015-Jul-02 16:00 333 7 gusting 13 21.7
2015-Jul-02 15:55 325 9 gusting 13 21.7
2015-Jul-02 15:50 311 6 gusting 13 21.1
2015-Jul-02 15:45 321 8 gusting 13 22.2
2015-Jul-02 15:40 338 8 gusting 12 21.7
2015-Jul-02 15:35 309 5 gusting 11 21.7
2015-Jul-02 15:30 321 6 gusting 13 21.7
2015-Jul-02 15:25 319 9 gusting 13 21.1
2015-Jul-02 15:20 300 8 gusting 13 21.1
2015-Jul-02 15:15 308 8 gusting 13 21.7
2015-Jul-02 15:10 292 7 gusting 13 21.7
2015-Jul-02 15:05 300 10 gusting 13 21.1
2015-Jul-02 15:00 312 9 gusting 14 21.1
2015-Jul-02 14:55 297 10 gusting 14 21.7
2015-Jul-02 14:50 332 7 gusting 13 21.7
2015-Jul-02 14:45 292 6 gusting 13 21.7
2015-Jul-02 14:40 313 7 gusting 13 21.7
2015-Jul-02 14:35 288 8 gusting 13 21.7
2015-Jul-02 14:30 293 6 gusting 12 21.1
2015-Jul-02 14:25 309 6 gusting 12 21.7
2015-Jul-02 14:20 325 7 gusting 12 22.2
2015-Jul-02 14:15 325 7 gusting 12 22.8
2015-Jul-02 14:10 301 7 gusting 11 22.2
2015-Jul-02 14:05 297 6 gusting 11 21.7
2015-Jul-02 14:00 303 6 gusting 12 21.7
2015-Jul-02 13:55 328 5 gusting 14 22.2
2015-Jul-02 13:50 263 6 gusting 14 21.7
2015-Jul-02 13:45 268 7 gusting 13 21.1
2015-Jul-02 13:40 315 8 gusting 13 21.7
2015-Jul-02 13:35 263 9 gusting 13 21.1
2015-Jul-02 13:30 326 8 gusting 13 21.1
2015-Jul-02 13:25 286 7 gusting 13 21.1
2015-Jul-02 13:20 287 7 gusting 13 21.1
2015-Jul-02 13:15 271 8 gusting 13 21.1
2015-Jul-02 13:10 275 7 gusting 13 21.1
2015-Jul-02 13:05 280 9 gusting 13 21.1
2015-Jul-02 13:00 254 8 gusting 13 21.1
2015-Jul-02 12:55 313 6 gusting 14 21.1
2015-Jul-02 12:50 263 9 gusting 14 21.1
2015-Jul-02 12:45 294 9 gusting 13 21.1
2015-Jul-02 12:40 277 8 gusting 13 21.1
2015-Jul-02 12:35 279 9 gusting 13 21.1
2015-Jul-02 12:30 319 6 gusting 12 21.1
2015-Jul-02 12:25 279 6 gusting 12 21.1
2015-Jul-02 12:20 282 6 gusting 12 21.1
2015-Jul-02 12:15 261 6 gusting 13 21.1
2015-Jul-02 12:10 292 6 gusting 13 21.1
2015-Jul-02 12:05 265 7 gusting 13 21.1
2015-Jul-02 12:00 276 8 gusting 12 21.1
2015-Jul-02 11:55 288 7 gusting 12 20.6
2015-Jul-02 11:50 321 7 gusting 12 20.6
2015-Jul-02 11:45 280 8 gusting 12 20.6
2015-Jul-02 11:40 303 6 gusting 12 20.6
2015-Jul-02 11:35 298 6 gusting 11 20.6
2015-Jul-02 11:30 279 7 gusting 11 20.6
2015-Jul-02 11:25 296 6 gusting 10 21.1
2015-Jul-02 11:20 344 6 gusting 10 21.1
2015-Jul-02 11:15 319 6 gusting 9 21.7
2015-Jul-02 11:10 266 6 gusting 11 20.6
2015-Jul-02 11:05 277 8 gusting 11 21.1
2015-Jul-02 11:00 322 6 gusting 11 20.6
2015-Jul-02 10:55 309 6 gusting 11 20.6
2015-Jul-02 10:50 336 6 gusting 10 21.1
2015-Jul-02 10:45 292 6 gusting 11 20.6
2015-Jul-02 10:40 293 6 gusting 11 20.6
2015-Jul-02 10:35 349 5 gusting 9 20.6
2015-Jul-02 10:30 295 6 gusting 10 20.6
2015-Jul-02 10:25 276 6 gusting 10 20.6
2015-Jul-02 10:20 265 6 gusting 10 20.6
2015-Jul-02 10:15 281 6 gusting 10 20.6
2015-Jul-02 10:10 337 5 gusting 8 20.6
2015-Jul-02 10:05 304 4 gusting 11 20.0
2015-Jul-02 10:00 307 4 gusting 11 20.0